User: anonymous   Login
Location: Budapest
(47.4979°N, 19.0402°E)
Time: 10:15:06
(UTC+02:00)
Language:

Tiangong 2 - Orbit

View from above orbital plane
View from above orbital plane
View from above satellite
View from above satellite

Ground track
Ground track

The orbit data is extracted from the following two-line orbital elements,

1 41765U 16057A   18172.15018519  .00041220  89103-5  12091-3 0  9992
2 41765  42.7859 316.9781 0004203 313.2577  30.2999 15.92939504100620
Epoch (UTC): 21 June 2018 03:36:16
Eccentricity: 0.0004203
inclination: 42.7859°
perigee height: 291 km
apogee height: 297 km
right ascension of ascending node: 316.9781°
argument of perigee: 313.2577°
revolutions per day: 15.92939504
mean anomaly at epoch: 30.2999°
orbit number at epoch: 10062

The dashed part of the orbit path shows where the satellite is in the earth's shadow,  

DLR